Tracking 31027 objects as of 19-Jul-2025
HD Live streaming from Space Station
objects crossing your sky now

FENGYUN 1C DEB

Track FENGYUN 1C DEB now!
10-day predictions


NORAD ID: 30678
Int'l Code: 1999-025AQL
Perigee: 773.4 km
Apogee: 880.8 km
Inclination: 99.1 °
Period: 101.3 minutes
Semi major axis: 7198 km
RCS: 0.0357 m2 (small)
Launch date: May 10, 1999
Source: People's Republic of China (PRC)
Launch site: Taiyaun Space Center, China (TSC)

Note: This is SATELLITE DEBRIS
Your satellite tracking list
SL-12 R/B(2)
Track 1 satellite(s)




NASA's NSSDC Master Catalog

Two Line Element Set (TLE):
1 30678U 99025AQL 25199.86652675  .00004130  00000-0  18517-2 0  9992
2 30678  99.0749 156.2064 0074614 292.5278  94.5348 14.21589798938103
Source of the keplerian elements: AFSPC